#timestamp,LO_Frequency,Hit 
1502676015.3,286047013.6,N
1502676035.2,286047013.7,N
1502676055.0,286047011.8,N
1502676055.9,286047011.8,N
1502676075.7,286047009.9,N
1502676095.6,286047009.1,N
1502676115.4,286047011.9,P
1502676135.2,286047008.7,P
1502676155.1,286047005.4,N
1502676156.0,286047005.4,N
1502676175.8,286047008.4,P
1502676195.7,286046999.2,N
1502676215.5,286046999.3,N
1502676235.3,286047000.5,N
1502676255.2,286046996.5,N
1502676275.9,286046996.5,N
1502676295.7,286046998.4,N
1502676315.5,286046998.4,N
1502676335.4,286046998.7,N
1502676355.2,286046999.3,N
1502676375.0,286047000.8,N
1502676375.9,286047000.8,N
1502676395.8,286046995.4,N
1502676415.6,286046996.7,N
1502676435.4,286047001.2,N
1502676455.3,286046996.7,N
1502676475.1,286046999.5,N
1502676495.8,286046998.0,N
1502676515.7,286046997.6,N
1502676535.5,286046996.9,N
1502676555.3,286046998.0,N
1502676575.2,286046997.2,N
1502676595.9,286046996.9,N
1502676615.7,286046999.3,N
1502676635.6,286046998.4,N
1502676655.4,286047000.1,N
1502676675.2,286046998.1,N
1502676695.0,286046999.2,N
1502676695.9,286046999.2,N
1502676715.8,286046997.4,N
1502676735.6,286046997.5,N
1502676755.5,286046995.6,P
1502676775.3,286046998.3,N
1502676795.1,286046997.1,N
1502676815.8,286046998.6,N
1502676835.7,286047002.7,N
1502676855.5,286046998.2,N
1502676875.3,286046998.6,N
1502676895.2,286046996.5,N
1502676915.0,286046996.5,N
1502676915.9,286046996.5,N
1502676935.7,286046997.4,N
1502676955.6,286046993.5,P
1502676975.4,286046999.2,N
1502676995.2,286047000.7,N
1502677015.1,286047001.6,N
1502677016.0,286047001.6,N
1502677035.8,286047004.3,N
1502677055.6,286047000.3,N
1502677075.5,286046997.0,N
1502677095.3,286046996.8,N
1502677115.1,286046999.5,N
1502677135.9,286046998.9,N
1502677155.7,286046999.5,N
1502677175.5,286047000.6,N
1502677195.4,286046997.8,N
1502677215.2,286046995.4,N
1502677235.0,286046993.0,N
1502677235.9,286046993.0,N
1502677255.8,286046992.1,N
1502677275.6,286046994.2,N
1502677295.4,286046993.5,N
1502677315.2,286046995.5,N
1502677335.1,286046992.5,N
1502677336.0,286046992.5,N
1502677355.8,286046993.1,N
1502677375.7,286046988.5,P
1502677395.5,286046992.2,N
1502677415.3,286046991.8,N
1502677435.1,286046992.8,N
1502677455.9,286046989.0,P
1502677475.7,286046999.5,N
1502677495.6,286046998.8,N
1502677515.4,286047000.5,N
1502677535.2,286047000.0,N
1502677555.0,286047003.2,N
1502677555.9,286047003.2,N
1502677575.8,286047003.9,N
1502677595.6,286047001.7,N
1502677615.4,286046996.7,N
1502677635.3,286046995.0,N
1502677655.1,286046996.3,N
1502677675.8,286046990.9,N
1502677695.7,286046993.2,N
1502677715.5,286046994.0,N
1502677735.3,286046994.8,N
1502677755.2,286046992.2,N
1502677775.9,286046994.7,N
1502677795.7,286046996.3,N
1502677815.5,286046999.2,N
1502677835.4,286047005.6,N
1502677855.2,286047006.2,N
1502677875.0,286047010.0,N
1502677875.9,286047010.0,N
1502677895.8,286047007.8,N
1502677915.6,286047010.3,N
1502677935.4,286047010.5,N
1502677955.3,286047010.3,N
1502677975.1,286047007.5,N
1502677995.8,286047008.3,N
1502678015.7,286047011.0,N
1502678035.5,286047012.9,N
1502678055.3,286047015.1,N
1502678075.2,286047014.1,N
1502678095.9,286047018.2,N
1502678115.7,286047017.5,N
1502678135.6,286047018.5,N
1502678155.4,286047015.7,N
1502678175.2,286047019.1,N
1502678195.0,286047017.7,N
1502678195.9,286047017.7,N
1502678215.8,286047015.8,N
1502678235.6,286047014.9,N
1502678255.4,286047015.5,N
1502678275.3,286047018.8,N
1502678295.1,286047015.0,N
1502678315.8,286047014.6,N
1502678335.7,286047016.4,N
1502678355.5,286047021.9,P
1502678375.3,286047005.7,N
1502678395.2,286047006.8,N
1502678415.0,286047006.2,N
1502678415.9,286047006.2,N
1502678435.7,286047010.0,N
1502678455.6,286047010.7,N
1502678475.4,286047008.3,N
1502678495.2,286047008.8,N
1502678515.1,286047007.4,N
1502678516.0,286047007.4,N
1502678535.8,286047007.0,N
1502678555.6,286047008.3,N
1502678575.5,286047004.7,N
1502678595.3,286047006.9,N
1502678615.1,286047008.8,N
1502678635.9,286047007.6,N
1502678655.7,286047006.4,N
1502678675.5,286047006.0,N
1502678695.3,286047006.3,N
1502678715.2,286047008.5,N
1502678735.0,286047006.2,N
1502678735.9,286047006.2,N
1502678755.7,286047008.3,N
1502678775.6,286047010.1,P
1502678795.4,286046999.9,N
1502678815.2,286047000.8,N
1502678835.1,286046998.1,N
1502678836.0,286046998.1,N
1502678855.8,286046998.7,N
1502678875.6,286046998.7,N
1502678895.5,286046999.2,N
1502678915.3,286046999.2,N
1502678935.1,286047000.8,N
1502678955.9,286047001.2,N
1502678975.7,286047002.2,N
1502678995.5,286046998.5,N
1502679015.4,286047002.6,N
1502679035.2,286047001.0,N
1502679055.0,286046999.7,N
1502679055.9,286046999.7,N
1502679075.8,286046998.4,N
1502679095.6,286046996.7,N
1502679115.4,286047001.1,N
1502679135.2,286046997.4,N
1502679155.1,286047001.0,N
1502679156.0,286047001.0,N
1502679175.8,286047001.9,N
1502679195.6,286047002.2,N
1502679215.5,286047000.5,N
1502679235.3,286047002.4,N
1502679255.1,286047002.5,N
1502679275.9,286047001.9,N
1502679295.7,286047007.5,N
1502679315.5,286047000.5,N
1502679335.4,286047001.1,N
1502679355.2,286046997.9,N
1502679375.0,286046992.9,P
1502679375.9,286046992.9,N
1502679395.8,286046988.6,P
1502679415.6,286046987.8,N
1502679435.4,286046989.9,N
1502679455.3,286046989.6,N
1502679475.1,286046989.5,N
1502679476.0,286046989.5,N
1502679495.8,286046989.5,N
1502679515.7,286046991.6,N
1502679535.5,286046986.5,P
1502679555.3,286046993.5,N
1502679575.2,286046992.1,N
1502679595.9,286046992.6,N
